www.pogodaiklimat.ru

Погода и климат >> Архив погоды >> Алжир >> Ин-Салах


АРХИВ ПОГОДЫ в Ин-Салах

Время (UTC), дата Ветер
(напр.,м/с)
 
Видим.   Явления Облачность Т
(С)
Тd
(С)
f
(%)
Тe
(С)
Тes
(С)
Комфортность P
(гПа)
Po
(гПа)
Тmin
(С)
Tmax
(С)
R
(мм)
R24
(мм)
S
(см)
09 12.07 В 12 3000 м пыльный позёмок ясно +42.6 +38 +38 очень
жарко
1007.7 978.8
12 12.07 В 9 7000 м пыльный позёмок ясно +46.1 +41 +43 опасность
перегрева
1007.1 978.5
15 12.07 В 7 9000 м ясно +46.9 +42 +45 опасность
перегрева
1006.0 977.5
18 12.07 В 8 10 км ясно +44.8 +40 +40 очень
жарко
1005.9 977.2 +47.6
21 12.07 СВ 6 10 км ясно +38.2 +33 +33 жарко 1007.7 978.4
00 13.07 В 4 10 км ясно +35.1 +30 +30 жарко 1008.2 978.6
03 13.07 В 7 10 км ясно +33.9 +29 +29 жарко 1007.7 978.0
06 13.07 СВ 7 9000 м ясно +32.0 -2.6 11 +28 +29 жарко 1009.0 979.1 +31.7
09 13.07 В 8 9000 м ясно +41.2 +36 +39 очень
жарко
1010.3 981.2
12 13.07 ЮВ 6 10 км ясно +45.8 1009.3 980.6
15 13.07 ЮВ 5 10 км ясно +47.9 +43 +49 опасность
перегрева
1007.6 979.2
18 13.07 В 6 10 км ясно +46.1 +41 +41 опасность
перегрева
1007.1 978.5 +48.4
21 13.07 штиль 0 10 км ясно +38.4 +33 +33 жарко 1008.5 979.2
00 14.07 штиль 0 10 км ясно +33.6 -3.4 9 +30 +30 жарко 1008.4 978.6
03 14.07 штиль 0 10 км ясно +30.1 -3.7 11 +27 +27 жарко 1007.4 977.3
06 14.07 СВ 6 10 км ясно +30.8 -3.2 11 +27 +28 жарко 1008.0 978.0 +29.6
09 14.07 В 6 10 км ясно +41.8 +5.4 11 +39 +44 очень
жарко
1009.2 980.2
12 14.07 ЮВ 5 10 км ясно +46.8 +42 +53 опасность
перегрева
1008.1 979.5
15 14.07 ЮВ 3 10 км ясно +47.1 +42 +51 опасность
перегрева
1006.0 977.5
18 14.07 ЮВ 3 10 км ясно +46.4 +41 +42 опасность
перегрева
1005.2 976.7 +48.2
21 14.07 СЗ 2 10 км 3/0
[Ci sp]
+38.2 +2.2 11 +35 +35 очень
жарко
1006.0 976.7
00 15.07 СЗ 3 10 км 5/0
[Ac lent Ci sp]
+34.7 +9.9 22 +34 +34 очень
жарко
1005.4 975.8
03 15.07 ЮВ 4 10 км 3/0
[Ac lent Ci sp]
+30.5 +1.0 15 +28 +28 жарко 1014.6 984.3
06 15.07 штиль 0 10 км 3/0
[Ci sp]
+29.0 -4.4 11 +26 +27 жарко 1005.5 975.4 +28.9
09 15.07 В 3 8000 м ясно +43.5 +38 +51 опасность
солнечного
удара
1005.9 977.1
12 15.07 ЮВ 2 8000 м ясно +47.1 +42 +64 опасность
перегрева
1004.8 976.4
15 15.07 С 3 8000 м ясно +47.8 +42 +52 опасность
перегрева
1003.0 974.7
18 15.07 С 4 8000 м ясно +46.6 +41 +42 опасность
перегрева
1002.4 974.0 +48.6
21 15.07 штиль 0 9000 м ясно +37.3 +32 +32 жарко 1003.5 974.2
00 16.07 С 2 9000 м ясно +35.9 +0.2 10 +32 +32 жарко 1003.5 974.1
03 16.07 С 1 9000 м ясно +34.4 -2.2 10 +31 +31 жарко 1003.0 973.5
06 16.07 СВ 4 8000 м ясно +35.0 -1.4 10 +31 +32 жарко 1004.4 974.9 +32.5
09 16.07 В 10 7000 м пыльный позёмок ясно +41.1 +36 +37 очень
жарко
1005.4 976.4
12 16.07 В 8 7000 м ясно +46.8 +42 +46 опасность
перегрева
1004.7 976.2
15 16.07 ЮВ 4 9000 м ясно +48.8 +43 +51 опасность
перегрева
1003.2 975.0
18 16.07 СВ 4 9000 м ясно +47.1 +42 +42 опасность
перегрева
1003.0 974.6 +49.1
21 16.07 С 2 9000 м 4/0
[Ac trans]
+38.6 +33 +33 жарко 1004.7 975.5
00 17.07 В 6 9000 м 4/0
[Ac trans]
+38.1 +33 +33 жарко 1005.8 976.5
03 17.07 В 7 9000 м 4/0
[Ac trans]
+36.2 +0.6 11 +33 +33 жарко 1005.3 975.9
06 17.07 В 7 9000 м 6/5 1500 м
[Cu med, cong Ac trans]
+35.1 +1.9 12 +32 +32 жарко 1006.6 977.0 +35.0
09 17.07 В 11 9000 м пыльный позёмок 6/4 1500 м
[Cu med, cong Ac lent Ci sp]
+40.3 +2.8 10 +37 +37 очень
жарко
1007.6 978.5
12 17.07 ЮВ 6 9000 м 3/0
[Ci sp]
+46.4 +41 +49 опасность
перегрева
1006.0 977.5
15 17.07 Ю 4 9000 м 4/3 1500 м
[Cu med, cong Ci sp]
+48.8 +43 +49 опасность
перегрева
1003.2 975.0
18 17.07 штиль 0 10 км 5/4 1500 м
[Cu med, cong Ci sp]
+47.1 +42 +42 опасность
перегрева
1002.5 974.1 +49.3
21 17.07 В 9 9000 м 4/3 1500 м
[Cu med, cong Ci sp]
+41.3 +36 +36 очень
жарко
1003.8 974.9
00 18.07 В 8 9000 м 4/3 1500 м
[Cu med, cong Ci sp]
+37.5 +0.3 10 +34 +34 очень
жарко
1003.6 974.3
03 18.07 В 8 9000 м 4/3 1500 м
[Cu med, cong Ci sp]
+34.5 +2.1 13 +31 +31 жарко 1002.4 972.9
06 18.07 В 8 9000 м 4/3 1500 м
[Cu med, cong Ci sp]
+32.8 +2.7 15 +30 +30 жарко 1002.8 973.1 +32.6
09 18.07 В 9 9000 м пыльный позёмок 5/0
[Ac trans Ci sp]
+39.8 +2.0 10 +36 +37 очень
жарко
1003.3 974.3
12 18.07 В 7 9000 м 5/0
[Ac lent Ci sp]
+46.8 +42 +45 опасность
перегрева
1002.5 974.1
15 18.07 С 3 9000 м 4/0
[Ac lent Ci sp]
+47.4 +42 +50 опасность
перегрева
1001.3 973.0
18 18.07 В 6 9000 м 4/0
[Ac trans Ci sp]
+45.9 +41 +41 опасность
перегрева
1001.2 972.8 +48.4
21 18.07 В 8 8000 м 4/0
[Ac lent Ci sp]
+39.6 +7.4 14 +37 +37 очень
жарко
1002.4 973.4
00 19.07 В 9 8000 м пыльный позёмок 4/0
[Ac lent Ci sp]
+36.8 +5.9 15 +34 +34 очень
жарко
1002.9 973.6
03 19.07 СВ 10 8000 м пыльный позёмок 4/0
[Ac lent Ci sp]
+34.7 +6.1 17 +32 +32 жарко 1002.6 973.1

 

Местоположение метеостанции Ин-Салах (Алжир): широта 27.23 долгота 2.50 высота над уровнем моря 269 м.

В архиве по умолчанию представлена погода в Ин-Салах за последнюю неделю. Архивные данные за месяц целиком и за предыдущие месяцы, начиная с января 2011 года, Вы можете получить, выбрав интересующий диапазон дат из раскрывающегося списка и нажав кнопку "Ввод!".


*Определитесь, кто Вы:
робот инопланетянин человек

Внимание! Время в таблицах - всемирное. Для получения местного времени необходимо прибавить поправку, которая равна 1 ч.

Смотрите также архив погоды в соседних городах и на ближайших метеорологических станциях:

Погода в Араке (Алжир) (254 км)
Погода в Адраре (Алжир) (274 км)
Погода в Тимимуне (Алжир) (313 км)
Погода в Abankor (Алжир) (326 км)
Погода в Moulay Lachen (Алжир) (350 км)
Погода в Эль-Голеа (Алжир) (373 км)
Погода в Ин-Зиза (Алжир) (418 км)
Погода в Mertouek (Алжир) (455 км)
Погода в Роуд-Ноусс (Алжир) (495 км)
Погода в Tin Fouye (Алжир) (514 км)

Пояснения к столбцам:

Ветер - указаны скорость ветра в м/с - средняя за 10 мин, порывы в срок и между сроками (в фигурных скобках) и направление, откуда дует ветер: С - северный, СВ - северо-восточный, В - восточный, ЮВ - юго-восточный, Ю - южный, ЮЗ - юго-западный, З - западный, СЗ - северо-западный.
Видимость - горизонтальная дальность видимости в метрах или километрах. При видимости от 1 до 10 км при отсутствии осадков обычно наблюдается дымка, при ухудшении видимости до 1 км и менее - туман. В сухую погоду видимость может ухудшаться дымом, пылью или мглою.
Явления - указаны атмосферные явления, наблюдавшиеся в срок или в последний час перед сроком; фигурными скобками обозначены явления, наблюдавшиеся между сроками (за 1-3 часа до срока); квадратными скобками обозначены град или гололедные отложения с указанием их диаметра в мм.
Облачность - указаны через наклонную черту общая и нижняя облачность в баллах и высота нижней границы облаков в метрах; квадратными скобками обозначены формы облаков: Ci - перистые, Cs - перисто-слоистые, Cc - перисто-кучевые, Ac - высококучевые, As - высокослоистые, Sc - слоисто-кучевые, Ns - слоисто-дождевые, Cu - кучевые, Cb - кучево-дождевые. Подробнее классификацию облаков см. в Атласе облаков (PDF).
T - Температура воздуха - температура, измеренная на высоте 2 м над землей.
Td - Температура точки росы - температура, при понижении до которой содержащийся в воздухе водяной пар достигнет насыщения.
f - Относительная влажность воздуха - влажноcть воздуха, измеренная на высоте 2 м над землей.
Te - Эффективная температура - температура, которую ощущает одетый по сезону человек в тени. Характеристика душности погоды. При расчете учитывается влияние влажности воздуха и скорости ветра на теплоощущения человека.
Tes - Эффективная температура на солнце - температура, которую ощущает человек, с поправкой на солнечный нагрев. Характеристика знойности погоды. Зависит от высоты солнца над горизонтом, облачности и скорости ветра. Ночью, в пасмурную погоду, а также при ветре 12 м/с и более поправка равна нулю.
P - Атмосферное давление - приведенное к уровню моря атмосферное давление.
Po - Атмосферное давление - измеренное на уровне метеостанции атмосферное давление.
Tmin - Минимальная температура - минимум температуры воздуха на высоте 2 м над землей.
Tmax - Максимальная температура - максимум температуры воздуха на высоте 2 м над землей.
R - Количество осадков - Количество выпавших осадков за период времени, мм. При наведении курсора мыши на число - период времени, за который выпало указанное количество осадков.
R24 - Количество осадков - Количество выпавших осадков за 24 часа, мм.
S - Снежный покров - Высота снежного покрова, см. При наведении курсора мыши на число - состояние снежного покрова и степень покрытия местности в баллах.